Wetbulb
76.86 77.24 77.74 78.26 78.77 79.36 79.17 79.06 67.96 68.51 67.15 66.23 66.07 71.25 77.49 78.98 79.21 79.41 78.12 77.91 77.68 79.09 77.37 76.84 76.58 76.63 74.69 75.87 75.48 75.65 74.31 73.47 69.87 71.56 73.43 73.40 68.59 66.91 68.32 71.67 74.68 72.11 71.33
76.48 77.36 77.69 78.36 78.33 77.64 77.82 79.33 75.68 66.89 66.93 66.46 72.09 76.69 78.49 79.55 79.47 78.49 78.48 78.09 77.88 77.43 76.08 75.94 76.22 76.04 75.81 76.19 74.97 74.31 74.86 73.33 70.59 69.50 71.58 72.27 72.01 72.82 73.88 72.83 73.58 73.92 72.83
76.62 77.16 77.16 77.58 77.89 77.39 77.84 79.68 77.24 78.80 77.85 78.81 80.12 80.41 80.44 80.56 79.67 79.01 79.19 79.19 79.10 78.10 77.68 77.48 77.16 77.14 75.69 75.54 76.01 74.91 74.53 74.25 73.20 71.53 70.10 72.94 73.16 73.27 72.86 73.21 73.36 72.87 72.87
76.83 76.14 76.78 77.60 77.96 78.02 78.99 78.88 81.15 80.50 80.06 80.17 80.05 80.80 81.51 80.65 80.10 79.74 79.62 79.03 78.82 78.08 77.72 77.00 76.67 75.93 75.19 75.39 75.18 74.96 74.11 73.30 72.60 71.86 70.23 70.53 71.65 72.39 71.54 69.23 69.29 71.47 70.67
78.45 77.68 79.09 78.59 79.97 80.44 80.70 80.17 79.98 81.05 80.44 80.48 80.36 80.93 80.66 79.04 77.92 79.52 79.54 79.01 78.39 76.82 76.87 76.57 75.87 74.68 72.97 71.87 72.47 72.66 72.66 72.82 72.00 71.53 69.85 69.59 69.16 68.92 68.88 70.40 69.63 69.78 70.76
78.11 76.59 79.14 79.85 80.20 80.67 81.05 80.75 81.41 79.68 80.17 80.12 79.82 80.21 80.41 76.84 71.56 72.17 76.50 77.68 77.46 76.61 74.76 74.56 74.91 73.93 73.60 70.09 69.65 69.36 69.62 69.70 70.04 71.78 70.57 69.93 69.57 69.96 70.01 70.53 69.99 68.43 66.39
77.33 78.08 78.44 79.88 79.70 80.38 81.10 80.02 81.15 79.63 78.07 76.82 79.64 78.99 77.70 74.95 69.11 70.69 72.50 78.54 75.88 75.81 75.01 74.64 73.44 73.40 71.04 72.22 71.27 68.89 68.69 67.98 68.15 69.90 69.04 69.22 69.25 71.44 71.68 70.33 69.63 69.42 68.32
77.14 77.61 79.67 79.78 79.72 80.28 80.61 79.95 80.93 79.60 79.19 77.74 78.91 79.80 76.28 68.50 66.39 69.46 72.40 78.36 76.45 75.57 74.86 74.31 73.42 72.43 65.86 67.01 69.38 72.03 72.74 73.14 72.03 70.55 70.89 71.48 72.46 72.34 71.82 71.05 70.38 70.07 70.26
76.36 77.75 79.51 79.50 79.84 80.44 80.15 79.86 80.49 79.44 78.91 79.12 78.15 78.60 74.28 69.09 62.87 63.71 67.92 76.77 75.57 75.33 74.72 69.85 71.71 68.89 63.41 63.45 67.56 69.96 71.19 72.17 70.13 67.79 67.25 67.14 67.36 67.36 67.77 69.17 67.72 67.69 66.75
77.43 78.12 79.78 79.89 79.14 79.06 80.30 80.35 80.81 79.87 79.13 78.64 77.96 78.20 69.92 69.89 59.91 60.32 65.20 74.75 74.10 72.78 72.81 65.64 62.67 63.98 61.13 60.98 66.85 68.66 67.93 68.57 68.80 70.59 71.80 69.45 67.84 69.63 66.64 69.03 69.16 67.01 67.06
78.25 79.04 79.70 79.16 79.08 80.34 80.76 80.93 79.31 78.65 78.35 78.13 76.82 75.49 73.99 70.77 62.36 58.21 59.88 71.44 70.38 70.74 70.72 67.38 62.93 60.10 59.27 58.67 58.87 64.92 64.22 63.48 67.24 68.93 70.46 70.15 69.24 71.84 71.49 70.55 70.95 69.35 67.63
78.42 78.55 78.70 78.98 79.60 80.59 81.00 79.83 79.07 78.20 77.25 76.64 75.03 74.31 72.62 67.63 60.51 57.66 57.80 59.44 62.38 69.29 67.17 65.00 61.96 57.33 57.46 58.91 62.37 59.96 60.93 63.32 66.67 67.05 67.87 66.24 65.56 66.67 67.89 70.18 71.03 71.26 70.96
77.85 77.97 78.65 79.54 80.26 81.01 79.40 78.90 78.04 78.08 75.84 74.85 73.41 72.77 69.81 66.70 63.88 58.13 58.36 59.16 59.80 66.44 65.46 60.21 58.49 58.34 58.18 58.41 59.44 59.78 61.75 64.09 63.71 62.67 62.48 62.98 63.89 65.51 66.63 66.89 67.66 69.05 69.41
77.11 78.01 79.18 79.87 79.98 79.86 79.77 79.15 77.69 76.57 75.42 74.04 72.88 71.96 70.45 67.52 65.52 65.14 65.26 63.91 60.90 64.44 61.87 63.91 62.58 62.43 60.76 62.24 62.48 62.53 63.14 62.41 62.17 62.11 62.30 63.37 64.45 64.20 63.59 63.39 63.48 63.86 64.13
78.56 79.28 79.78 79.82 79.29 78.89 69.71 72.37 76.32 73.36 71.66 74.03 73.16 73.12 70.47 69.16 66.72 59.30 61.78 67.84 66.49 57.34 62.75 67.04 64.01 63.90 63.33 62.83 62.96 61.50 60.87 60.94 59.70 60.65 60.29 60.05 60.45 61.35 59.73 62.08 62.04 61.42 60.98
78.90 79.02 78.93 79.11 77.39 68.30 65.46 61.39 52.11 50.35 50.04 52.38 57.33 64.34 59.18 56.25 48.95 48.80 49.04 49.81 50.62 51.01 62.97 65.32 63.26 62.25 61.00 60.80 60.69 60.71 60.28 59.22 58.69 59.26 59.89 59.14 58.32 58.44 57.52 59.46 60.04 58.92 57.62
78.81 79.07 78.86 76.07 72.84 69.69 66.05 63.98 58.68 55.64 50.12 47.28 50.57 52.29 52.57 49.58 47.57 47.71 48.44 49.21 50.07 54.25 62.58 62.56 61.17 61.07 60.94 60.49 60.22 59.59 59.13 59.01 59.50 58.73 58.50 58.47 58.28 57.86 57.19 56.59 56.53 56.59 55.44
79.89 66.87 77.87 76.49 71.75 70.81 70.16 68.85 65.16 65.59 63.27 58.44 53.04 50.69 45.96 45.86 45.75 45.66 48.60 50.34 58.57 55.90 61.57 60.93 60.47 60.84 60.16 59.91 59.98 59.36 59.52 59.41 58.72 58.26 57.97 57.72 57.88 57.01 56.53 56.28 55.63 54.88 54.27
77.02 76.64 76.64 72.49 73.38 70.22 70.29 70.86 68.38 69.74 66.43 59.67 55.19 52.72 48.49 45.37 45.85 46.42 47.60 61.55 62.46 60.60 60.25 60.31 60.90 60.09 59.88 60.35 60.37 59.95 58.88 57.70 57.12 57.00 56.91 56.10 55.41 53.94 53.90 53.31 52.90 49.41 50.09
75.24 67.42 67.35 69.25 68.82 69.26 68.35 68.70 67.71 68.84 66.13 61.98 59.86 58.24 55.92 53.98 56.02 57.14 58.23 61.14 62.58 60.66 61.10 61.26 61.07 60.78 60.21 60.25 59.95 59.30 57.86 56.64 55.20 55.23 54.37 53.65 53.86 53.08 51.30 51.37 51.13 50.79 51.59
71.41 69.35 66.67 68.66 67.62 67.38 67.53 67.58 66.79 66.36 65.90 63.45 63.38 59.74 53.37 59.79 59.75 60.25 60.67 61.66 61.32 60.49 60.74 61.61 60.34 60.68 60.75 60.14 59.12 56.19 54.78 54.50 54.81 52.09 51.28 51.47 51.87 50.13 51.75 51.46 50.95 51.54 51.41
68.18 68.61 67.93 67.91 67.54 68.75 68.34 69.48 68.90 69.43 68.06 65.50 65.56 57.60 50.12 59.75 64.20 62.71 61.42 60.26 60.86 61.84 60.61 61.29 59.56 59.07 59.38 58.20 56.91 55.77 54.98 53.26 50.26 49.95 50.31 49.45 49.25 49.52 49.67 49.13 50.45 50.24 50.67
68.74 67.41 66.15 66.42 68.47 66.24 69.04 70.25 69.87 69.34 68.74 67.29 61.85 58.92 58.23 61.40 64.07 61.96 60.99 60.25 60.32 59.63 60.33 59.23 58.66 58.37 57.31 55.86 55.85 55.32 52.16 48.34 48.40 49.10 47.65 47.16 47.79 47.99 47.36 48.84 49.54 49.92 49.77
70.68 69.95 67.11 66.93 70.25 69.95 70.09 70.15 70.14 64.54 68.95 68.37 63.78 62.33 62.28 62.80 63.24 61.63 59.87 59.16 57.92 58.68 58.31 58.50 57.77 55.96 54.67 55.77 53.24 50.05 47.58 45.38 47.67 46.52 45.84 46.47 46.25 45.88 47.67 49.04 49.41 49.91 48.95
70.44 69.94 69.44 69.61 70.72 70.59 69.79 69.47 69.71 68.93 68.60 68.08 65.62 63.29 62.82 62.44 62.91 59.60 58.36 57.62 56.51 56.06 55.82 55.89 55.27 55.03 54.33 53.38 48.80 44.96 36.81 33.24 42.42 35.82 44.29 44.76 45.84 47.39 48.41 48.86 48.65 48.12 48.45
71.42 71.97 70.56 69.90 70.48 69.62 69.47 69.35 68.80 68.54 68.05 67.58 65.52 63.40 62.53 62.51 60.38 57.71 56.76 55.86 55.19 55.37 54.69 54.86 54.89 54.84 54.10 53.12 48.14 37.67 31.53 32.40 38.52 32.12 37.56 43.19 46.22 48.08 49.01 48.39 47.74 46.54 46.78
MSLP
1009.41 1010.08 1010.73 1011.31 1011.93 1012.38 1012.36 1013.20 1014.72 1015.39 1014.77 1014.19 1014.93 1016.10 1015.12 1014.76 1014.94 1015.28 1015.64 1015.63 1015.78 1015.65 1015.50 1015.47 1015.54 1015.81 1015.72 1015.68 1015.71 1015.65 1015.90 1016.13 1016.37 1016.18 1016.38 1017.19 1017.95 1017.77 1017.88 1017.69 1017.04 1017.14 1017.43
1008.85 1009.38 1010.20 1010.71 1011.23 1012.01 1012.20 1012.48 1013.67 1014.33 1014.31 1014.32 1015.16 1014.69 1014.43 1014.25 1014.48 1015.09 1015.41 1015.45 1015.48 1015.65 1015.61 1015.49 1015.65 1015.70 1015.85 1015.87 1015.99 1016.06 1015.99 1016.14 1016.52 1016.51 1016.35 1016.63 1016.93 1016.88 1016.71 1016.82 1016.65 1016.41 1016.60
1008.29 1009.00 1009.51 1010.11 1010.53 1011.12 1011.83 1012.04 1012.39 1012.91 1013.75 1013.92 1014.00 1014.17 1013.98 1014.22 1014.55 1015.14 1015.26 1015.13 1015.21 1015.46 1015.40 1015.49 1015.58 1015.53 1015.60 1015.65 1015.82 1016.00 1015.95 1016.04 1016.22 1016.40 1016.36 1015.86 1016.14 1016.30 1016.35 1016.53 1016.40 1016.18 1016.20
1008.00 1008.59 1009.13 1009.78 1010.26 1010.54 1011.12 1011.76 1011.96 1012.50 1013.14 1013.56 1013.76 1013.85 1013.88 1014.17 1014.80 1015.04 1015.00 1015.22 1015.48 1015.35 1015.22 1015.47 1015.62 1015.61 1015.65 1015.65 1015.70 1015.86 1015.83 1015.91 1015.99 1016.16 1016.05 1015.79 1015.85 1015.92 1016.28 1016.62 1016.77 1016.59 1016.43
1007.63 1008.33 1008.75 1009.26 1009.85 1010.42 1010.66 1011.26 1011.95 1012.46 1012.86 1013.30 1013.68 1013.86 1014.20 1014.74 1014.56 1014.63 1015.06 1015.40 1015.34 1015.19 1015.21 1015.52 1015.75 1015.81 1015.79 1015.86 1016.05 1016.11 1016.21 1016.21 1016.14 1016.05 1016.00 1015.88 1016.03 1016.17 1016.40 1016.41 1016.45 1016.39 1016.10
1007.43 1008.28 1008.57 1009.14 1009.63 1010.27 1010.77 1011.24 1011.86 1012.28 1012.89 1013.37 1013.68 1013.82 1014.03 1014.44 1014.56 1014.85 1015.04 1015.13 1015.03 1015.40 1015.75 1015.92 1015.99 1016.09 1015.92 1015.98 1016.08 1016.09 1016.20 1016.42 1016.43 1016.29 1016.15 1016.03 1015.87 1016.12 1016.08 1016.18 1016.27 1016.39 1016.25
1007.37 1007.95 1008.42 1008.90 1009.35 1009.92 1010.63 1011.40 1011.70 1012.18 1012.41 1013.26 1013.36 1013.52 1014.18 1014.88 1015.04 1015.02 1015.15 1015.04 1015.36 1015.69 1016.01 1016.15 1016.17 1016.33 1016.56 1016.48 1016.17 1015.99 1015.97 1015.96 1016.05 1016.12 1016.17 1016.12 1015.97 1015.84 1015.79 1015.96 1016.08 1016.17 1016.04
1007.05 1007.40 1007.76 1008.40 1009.07 1009.66 1010.33 1011.08 1011.35 1012.04 1012.38 1013.09 1013.16 1013.37 1014.37 1015.28 1015.36 1015.18 1015.28 1015.32 1015.42 1015.71 1015.96 1016.16 1016.29 1016.51 1017.03 1017.06 1016.77 1016.21 1015.77 1015.45 1015.32 1015.55 1015.61 1015.63 1015.71 1015.73 1015.85 1015.84 1015.92 1015.92 1015.73
1006.31 1006.78 1007.32 1008.00 1008.58 1009.22 1009.93 1010.51 1011.02 1011.89 1012.25 1012.71 1013.03 1013.38 1014.47 1015.32 1015.41 1015.45 1015.63 1015.50 1015.50 1015.58 1015.92 1016.42 1016.47 1016.88 1017.28 1017.28 1016.95 1016.38 1015.88 1015.47 1014.94 1015.19 1015.38 1015.29 1015.16 1015.13 1015.32 1015.53 1015.49 1015.58 1015.44
1005.32 1006.05 1006.80 1007.52 1008.26 1008.78 1009.21 1009.92 1010.42 1011.36 1011.78 1012.45 1012.96 1013.68 1014.30 1015.12 1015.58 1015.79 1015.71 1015.43 1015.28 1015.36 1016.15 1017.01 1017.19 1017.55 1017.60 1017.38 1017.09 1016.56 1016.19 1015.95 1015.76 1015.53 1015.36 1015.10 1014.89 1014.71 1015.04 1015.19 1015.17 1015.23 1015.25
1005.34 1006.11 1006.78 1007.30 1007.85 1008.38 1008.80 1009.39 1010.11 1010.69 1011.35 1012.18 1013.12 1013.97 1014.62 1015.53 1016.21 1015.97 1015.75 1015.79 1015.77 1015.64 1016.11 1016.89 1017.57 1017.77 1017.67 1017.71 1017.61 1017.37 1017.08 1016.67 1016.17 1015.70 1015.39 1015.16 1014.85 1014.66 1014.83 1014.97 1014.85 1015.04 1015.00
1005.37 1006.08 1006.63 1007.20 1007.51 1008.01 1008.68 1009.42 1010.05 1010.76 1011.42 1012.12 1012.63 1013.64 1014.83 1015.83 1016.19 1016.12 1016.19 1016.22 1016.22 1016.17 1016.54 1017.11 1017.60 1017.72 1017.96 1018.00 1017.81 1017.62 1017.25 1016.68 1016.00 1015.63 1015.28 1015.31 1015.31 1015.20 1015.07 1014.68 1014.33 1014.26 1014.23
1005.03 1005.77 1006.45 1007.07 1007.26 1007.71 1008.62 1009.24 1009.89 1010.53 1011.19 1011.67 1012.35 1013.05 1014.40 1015.55 1016.09 1016.31 1016.36 1016.48 1016.51 1016.64 1016.85 1017.33 1017.61 1017.60 1017.77 1018.08 1017.99 1017.92 1017.57 1017.31 1016.97 1016.60 1016.30 1016.16 1015.93 1015.47 1015.08 1014.81 1014.47 1014.32 1014.02
1004.79 1005.38 1006.02 1006.65 1007.18 1007.95 1008.56 1009.55 1009.88 1010.28 1011.01 1011.34 1011.70 1012.40 1013.53 1014.78 1015.61 1016.11 1016.36 1016.51 1016.54 1016.70 1017.06 1017.30 1017.43 1017.47 1017.49 1017.70 1017.83 1017.97 1018.13 1017.97 1017.71 1017.46 1017.23 1016.94 1016.62 1016.18 1015.85 1015.62 1015.20 1014.80 1014.42
1004.50 1004.92 1005.54 1006.11 1006.90 1007.90 1009.33 1010.11 1010.38 1009.99 1010.61 1011.10 1011.16 1011.53 1012.63 1013.56 1014.62 1015.35 1015.61 1015.74 1016.24 1016.58 1016.71 1016.92 1017.21 1017.24 1017.39 1017.45 1017.69 1018.05 1018.13 1018.22 1018.24 1017.92 1017.73 1017.44 1017.02 1016.65 1016.59 1016.12 1015.75 1015.52 1015.23
1004.30 1004.80 1005.29 1005.98 1006.94 1008.44 1009.70 1011.07 1011.12 1011.51 1011.28 1010.74 1010.61 1011.34 1012.80 1012.82 1014.31 1014.93 1015.57 1016.01 1016.33 1016.61 1016.72 1016.67 1016.83 1017.08 1017.34 1017.63 1017.81 1018.08 1018.28 1018.58 1018.76 1018.47 1017.93 1017.71 1017.30 1017.11 1017.02 1016.58 1016.27 1016.15 1015.85
1004.23 1004.62 1005.19 1006.00 1006.89 1008.01 1009.12 1010.19 1011.28 1012.51 1012.04 1012.02 1011.91 1012.43 1012.53 1013.58 1014.39 1015.20 1015.98 1016.24 1016.29 1016.71 1016.75 1016.42 1016.66 1017.13 1017.67 1018.03 1018.07 1018.32 1018.19 1018.44 1018.81 1018.90 1018.62 1017.97 1017.43 1017.06 1016.97 1016.94 1016.90 1016.74 1016.51
1004.14 1004.47 1004.79 1005.60 1006.66 1007.72 1008.69 1010.16 1010.68 1011.37 1011.80 1012.91 1013.66 1013.54 1013.76 1014.25 1014.91 1015.56 1015.94 1016.33 1016.35 1016.43 1016.28 1016.35 1016.71 1017.10 1017.53 1018.01 1018.15 1018.43 1018.38 1018.25 1018.20 1018.32 1018.23 1017.94 1017.26 1016.90 1016.75 1016.67 1016.76 1016.77 1016.61
1004.28 1004.87 1005.09 1005.79 1006.19 1007.22 1007.94 1008.77 1009.60 1010.12 1011.42 1012.60 1013.74 1014.49 1015.02 1014.93 1015.49 1016.00 1016.23 1015.88 1015.37 1015.36 1015.69 1016.10 1016.25 1016.78 1017.47 1017.81 1017.95 1018.26 1018.33 1018.44 1018.42 1018.20 1017.98 1018.10 1017.66 1017.14 1016.86 1016.82 1016.71 1016.63 1016.45
1004.48 1005.35 1005.99 1006.23 1006.79 1006.96 1007.36 1008.38 1008.59 1009.68 1010.53 1011.80 1012.64 1013.33 1014.46 1014.90 1015.31 1015.47 1015.70 1015.38 1014.79 1014.75 1015.32 1015.69 1016.31 1016.92 1017.42 1017.78 1018.07 1018.23 1018.15 1018.33 1018.50 1018.28 1018.18 1018.28 1017.97 1017.46 1017.19 1016.96 1016.71 1016.51 1016.28
1005.20 1005.81 1006.32 1007.05 1007.05 1007.37 1008.04 1008.48 1009.21 1009.28 1010.17 1011.21 1011.26 1012.58 1013.27 1013.39 1013.75 1013.98 1014.06 1014.23 1014.07 1014.34 1015.05 1015.64 1016.21 1017.18 1017.67 1017.89 1018.01 1018.32 1018.78 1018.68 1018.49 1018.48 1018.37 1018.25 1017.99 1017.61 1017.26 1017.18 1016.99 1016.73 1016.39
1005.02 1005.44 1005.61 1006.47 1007.09 1007.73 1008.07 1008.36 1009.32 1009.17 1009.15 1010.36 1010.66 1011.66 1012.51 1012.67 1012.30 1012.50 1013.03 1013.71 1013.98 1014.46 1015.21 1015.70 1015.95 1016.43 1016.74 1017.29 1017.92 1018.34 1018.52 1018.60 1018.93 1019.09 1019.00 1018.80 1018.40 1017.82 1017.48 1017.54 1017.15 1016.89 1016.64
1004.77 1005.40 1005.84 1005.90 1006.49 1007.07 1007.34 1007.43 1007.60 1007.97 1007.96 1008.62 1009.97 1011.18 1012.09 1011.93 1011.66 1011.97 1012.71 1013.36 1014.21 1014.78 1015.25 1015.73 1016.13 1016.52 1017.03 1017.55 1017.83 1018.16 1018.82 1019.22 1019.53 1019.70 1019.67 1019.35 1018.98 1018.32 1017.74 1017.40 1017.20 1016.82 1016.48
1003.94 1004.23 1004.69 1005.10 1005.08 1005.39 1005.79 1006.12 1006.07 1006.40 1006.87 1007.65 1009.09 1010.04 1010.86 1011.18 1011.14 1011.61 1012.41 1013.34 1014.13 1014.84 1015.36 1015.89 1015.81 1016.43 1017.39 1017.56 1018.04 1018.73 1019.53 1020.19 1020.24 1020.15 1020.11 1019.61 1018.97 1018.55 1017.92 1017.31 1016.89 1016.73 1016.78
1003.04 1003.27 1003.56 1003.72 1003.90 1004.12 1004.50 1004.88 1005.05 1005.56 1006.19 1006.83 1007.74 1008.90 1009.87 1010.38 1010.29 1011.05 1012.07 1013.20 1014.03 1014.55 1015.01 1015.58 1016.22 1016.87 1017.46 1017.83 1018.71 1019.35 1020.25 1020.50 1020.46 1020.72 1020.23 1019.86 1019.13 1018.58 1017.84 1017.52 1017.28 1016.98 1016.62
1001.96 1001.95 1002.36 1002.82 1003.18 1003.42 1003.79 1004.37 1004.97 1005.37 1005.96 1006.59 1007.28 1008.18 1008.93 1009.50 1009.99 1010.80 1012.06 1012.88 1013.77 1014.33 1014.68 1015.20 1015.78 1016.85 1017.45 1017.92 1018.68 1019.66 1020.13 1020.42 1020.52 1020.70 1020.50 1019.92 1019.01 1018.17 1017.75 1017.51 1017.32 1017.00 1016.51
Wind_Speed
14 14 12 11 10 7 5 8 11 11 9 9 9 14 7 5 6 5 5 3 5 2 5 5 3 4 4 4 3 3 3 2 2 4 2 4 4 5 7 9 5 6 7
14 13 12 12 10 11 8 7 18 10 7 6 13 6 4 5 4 4 4 2 3 4 4 4 4 3 5 4 4 6 3 5 3 5 4 3 4 8 6 6 5 5 7
14 14 14 13 12 11 11 7 8 10 12 7 5 3 3 3 3 4 3 3 1 1 2 4 5 5 5 3 2 3 4 3 2 1 4 2 3 4 3 2 3 3 4
13 13 12 12 10 9 10 9 5 7 7 6 6 6 3 3 4 3 4 2 4 5 4 0 4 5 5 5 3 3 4 3 4 2 4 4 2 3 3 3 2 3 4
10 10 9 11 9 8 7 9 8 7 7 6 6 5 5 5 6 5 4 5 1 4 5 6 5 3 2 3 2 4 5 4 4 3 3 4 1 2 3 2 1 2 3
11 9 8 10 9 8 7 6 7 7 6 7 8 6 5 3 4 9 2 3 3 6 6 6 6 9 0 1 3 5 3 3 5 3 3 3 3 3 2 1 1 2 3
10 9 8 11 10 9 7 7 8 8 8 10 7 6 7 4 3 8 5 3 6 4 3 2 4 6 9 7 4 6 7 9 9 4 4 4 4 4 3 3 2 3 4
11 12 10 12 11 10 9 9 9 6 6 8 9 7 8 5 2 5 1 2 5 3 5 4 3 5 7 7 8 7 6 5 5 4 5 4 4 3 4 2 3 4 4
15 14 13 14 13 12 11 11 9 9 6 7 7 9 9 7 6 2 3 2 5 5 5 7 4 7 7 8 6 8 5 5 0 4 6 7 8 8 6 2 4 4 4
17 16 15 14 13 13 13 12 10 8 7 5 6 7 10 7 3 5 4 4 3 2 8 6 11 5 4 6 5 5 6 6 8 6 5 7 11 8 7 5 4 5 3
14 13 13 13 13 12 12 11 10 10 9 7 9 9 9 5 5 7 10 5 5 4 5 5 4 4 8 10 9 6 5 7 8 6 5 4 3 3 2 4 5 5 5
13 13 13 13 11 11 12 10 11 9 9 9 11 9 7 6 4 7 9 8 5 4 5 5 5 6 5 8 5 7 10 9 4 4 3 5 7 7 5 4 4 5 4
13 14 13 13 12 12 12 12 10 10 10 11 9 8 7 5 4 3 6 5 4 3 5 5 3 4 2 1 3 9 6 4 6 6 5 5 5 5 7 5 5 5 5
14 14 14 14 12 12 9 9 9 10 10 9 10 9 10 9 7 6 5 4 4 4 5 4 4 4 4 5 4 5 3 5 4 4 4 4 4 5 6 7 5 6 5
13 14 14 12 12 12 7 2 5 3 5 10 10 10 12 10 8 7 4 3 3 4 1 4 4 4 3 1 3 4 3 3 4 5 5 5 4 4 5 5 5 5 5
12 11 11 10 10 9 8 7 18 14 9 6 9 10 5 17 16 15 11 10 8 6 2 3 3 2 2 4 3 2 4 5 5 4 2 2 3 4 4 4 4 3 5
10 11 10 11 10 9 10 9 10 6 17 17 14 9 13 16 16 14 10 5 5 4 3 3 4 3 3 2 2 2 2 3 1 3 4 3 2 3 4 4 5 5 6
10 7 10 10 10 9 10 7 8 7 8 8 9 8 13 14 13 11 9 3 4 3 4 4 4 3 4 1 1 1 2 2 2 3 3 4 3 3 3 2 3 3 3
8 4 4 4 4 9 10 10 8 9 9 9 9 6 5 10 10 6 1 4 4 5 5 4 3 5 4 3 2 1 3 2 2 4 2 3 4 4 4 4 4 5 4
5 4 4 4 1 3 4 6 6 8 8 8 8 9 9 7 6 7 6 6 4 4 4 4 4 4 4 2 1 3 2 3 3 4 4 4 4 4 4 4 4 4 4
6 7 7 1 3 5 2 5 2 5 7 7 8 10 12 9 9 9 8 6 3 5 5 3 5 4 3 3 2 4 2 3 1 4 3 4 4 4 4 4 4 5 5
6 5 7 8 5 6 10 10 12 11 10 10 9 12 19 8 8 8 6 6 4 4 5 4 3 4 2 4 3 4 4 2 5 4 4 4 4 4 5 5 5 5 5
9 10 8 9 8 12 10 12 11 12 10 10 11 10 9 8 5 7 6 6 5 4 4 4 4 3 4 4 2 2 4 5 4 4 4 5 5 4 4 5 5 5 4
11 11 11 10 11 11 11 12 11 10 10 10 13 12 9 7 6 8 7 6 6 4 5 2 2 5 5 1 6 7 6 4 4 4 5 5 5 6 5 6 5 6 6
11 11 10 10 9 9 9 10 8 9 8 9 10 10 9 9 6 9 7 7 6 5 6 5 5 5 4 3 12 10 7 5 2 5 4 6 6 8 7 5 6 7 7
11 10 11 10 7 6 5 5 5 7 9 9 9 10 9 8 7 8 7 8 7 6 7 4 6 7 8 5 12 12 8 5 2 2 4 6 7 6 5 5 9 7 8
Wind_Direction
197 183 191 189 188 209 247 129 149 167 210 164 205 246 203 188 191 217 250 184 214 252 310 331 251 296 299 297 293 308 329 344 340 339 80 130 154 205 274 237 205 174 178
197 177 184 185 186 179 214 178 149 181 202 202 217 200 220 170 197 203 244 21 191 233 264 276 289 276 282 274 305 307 318 321 312 292 266 155 179 202 205 200 239 198 187
191 180 184 182 190 185 180 211 190 168 178 181 188 171 196 197 189 215 245 331 9 294 330 281 252 258 256 272 269 286 291 331 303 281 295 231 168 185 186 234 224 233 288
180 188 181 182 189 193 169 179 193 158 167 179 195 179 182 203 187 250 214 208 230 214 187 32 297 307 19 355 332 328 290 311 319 306 269 246 202 218 164 193 224 223 245
163 193 179 175 178 189 176 172 166 169 167 195 184 180 203 199 211 175 169 189 106 29 349 20 25 69 108 53 324 341 345 345 310 322 314 295 66 59 209 248 246 264 246
163 175 186 171 174 182 181 180 164 168 180 197 183 180 182 88 34 93 96 142 70 48 37 14 347 31 263 80 295 290 295 290 289 318 304 335 328 338 29 341 312 307 288
163 178 162 171 178 185 183 168 167 175 174 215 174 185 113 125 63 94 83 58 79 64 97 27 344 41 27 348 309 256 269 239 230 288 292 296 314 329 341 316 288 263 256
173 181 170 171 176 180 181 174 175 178 173 198 185 147 118 83 69 97 150 146 133 171 106 100 85 77 35 3 333 308 292 275 218 214 223 253 285 333 328 267 259 266 258
182 183 176 174 178 176 181 174 171 186 183 182 168 133 119 110 57 35 256 211 188 155 128 39 43 65 22 9 327 319 345 340 289 248 276 269 257 239 221 277 261 251 264
183 183 174 172 174 176 175 175 166 168 171 157 159 123 110 120 75 1 3 278 168 85 111 91 56 54 21 14 345 348 335 22 347 336 286 258 255 247 207 220 264 263 266
182 177 171 174 177 178 178 164 161 165 158 156 134 128 110 97 48 17 18 47 26 357 122 115 72 40 24 1 345 17 344 315 304 294 296 308 1 31 124 211 240 253 276
175 175 175 177 184 176 169 163 160 166 151 140 133 124 112 99 59 55 66 67 5 7 55 74 106 70 26 358 25 347 339 325 261 291 331 15 17 9 350 329 277 256 241
172 175 173 180 188 164 166 165 164 166 155 150 148 147 138 143 135 135 124 120 82 93 91 113 107 314 205 194 354 359 349 345 359 11 16 6 352 350 334 0 329 14 323
174 173 174 177 168 163 168 171 170 169 169 165 163 168 152 159 162 176 178 176 149 141 128 177 174 131 71 138 178 80 13 8 358 354 352 343 333 347 1 358 341 342 339
177 174 175 174 163 162 80 170 194 132 171 177 186 176 161 170 156 132 114 117 80 86 254 173 191 188 170 128 95 77 64 40 1 346 8 353 349 350 2 325 351 348 345
181 175 178 167 149 130 120 89 40 18 352 111 118 129 57 110 133 119 116 111 97 61 170 216 144 97 44 56 45 57 74 41 359 336 351 351 1 0 339 350 348 2 344
189 183 175 168 147 153 136 139 125 72 60 40 66 102 122 138 122 118 110 108 128 126 241 109 110 97 81 41 65 10 58 112 66 307 314 325 336 356 356 6 348 9 351
205 204 186 174 153 155 149 168 147 157 131 112 37 90 106 116 113 110 121 119 157 183 245 124 134 119 96 77 348 121 275 95 129 268 282 299 327 343 335 360 337 359 344
209 217 168 146 174 159 158 160 161 163 144 127 129 105 95 94 96 93 20 243 208 158 141 150 151 141 145 194 158 129 282 46 351 300 351 340 348 345 354 7 346 3 324
204 125 175 115 69 24 101 152 150 156 147 152 168 156 154 145 158 171 203 214 229 135 116 126 108 79 101 52 158 259 25 49 14 318 22 341 350 329 350 329 343 326 322
162 136 126 86 144 121 89 322 243 149 169 170 167 160 162 173 171 178 181 186 176 122 121 133 121 128 151 197 21 61 348 293 253 24 359 332 341 329 328 354 327 323 329
173 200 174 188 184 192 184 174 205 203 175 175 177 156 173 219 191 161 159 151 151 104 117 111 122 173 169 124 136 182 223 55 46 358 337 346 321 317 2 331 326 336 322
179 197 194 183 206 199 186 194 195 194 183 165 144 154 177 199 218 142 141 133 126 123 117 143 174 168 99 85 68 59 56 57 18 339 356 320 313 343 323 312 309 304 333
204 179 187 204 190 183 190 201 196 186 175 171 152 157 181 189 199 140 136 137 128 139 125 152 83 95 96 167 95 82 77 35 339 10 325 298 320 315 320 291 306 338 334
205 185 197 202 210 200 180 189 190 173 185 173 151 151 169 183 173 135 140 141 141 151 147 149 124 141 144 123 93 102 101 61 13 305 315 314 296 290 279 324 339 318 317
214 202 185 198 215 161 177 179 226 194 189 181 157 156 164 182 147 137 148 144 152 163 153 144 141 159 148 172 118 123 147 180 167 342 305 288 283 292 323 330 326 328 306